Regional Weather Roundup
Issued by NWS Sioux Falls, SD

Home | Current Version | Previous Version | Text Only | Print | Product List | Glossary On
Versions: 1 2 3 4 5 6 7 8 9 10 11 12 13 14 15 16 17 18 19 20 21 22 23 24 25 26 27 28 29 30 31 32 33 34 35 36 37 38 39 40 41 42 43 44 45 46 47 48 49 50
195
ASUS43 KFSD 271102
RWRFSD

WEATHER ROUNDUP FOR SE SOUTH DAKOTA/SW MINNESOTA/NW IOWA
NATIONAL WEATHER SERVICE SIOUX FALLS SD
600 AM CDT THU APR 27 2017

NOTE: "FAIR" INDICATES FEW OR NO CLOUDS BELOW 12,000 FEET WITH NO
SIGNIFICANT WEATHER AND OR OBSTRUCTIONS TO VISIBILITY.


SDZ038>040-050-052>070-271200-
SOUTHEAST SOUTH DAKOTA

CITY           SKY/WX    TMP DP  RH WIND       PRES   REMARKS
BROOKINGS      CLOUDY    28  24  85 NW16      29.62S WCI  16
CHAMBERLAIN    CLOUDY    32  31  96 W8        29.69F WCI  25
HURON          CLOUDY    30  24  78 NW16      29.69F WCI  19
MADISON        CLOUDY    27  27 100 NW18      29.63S WCI  13
MITCHELL       CLOUDY    32  26  78 NW13      29.69S WCI  22
SIOUX FALLS    CLOUDY    30  27  88 NW16      29.64S WCI  19
WINNER         FAIR      21  17  84 W7        29.69F WCI  12
YANKTON        PTCLDY    30  23  74 NW13      29.67R WCI  20
$$

MNZ071-072-080-081-089-090-097-098-271200-
SOUTHWEST MINNESOTA

CITY           SKY/WX    TMP DP  RH WIND       PRES   REMARKS
FAIRMONT       CLOUDY    30  29  96 NW20      29.57F WCI  17
JACKSON        CLOUDY    30  28  93 NW15G24   29.59S WCI  19
LUVERNE        CLOUDY    30  25  80 N16       29.63S WCI  19
MARSHALL       CLOUDY    28  25  88 NW15G23   29.62R WCI  16
MONTEVIDEO     CLOUDY    28  28 100 N13G18    29.61S WCI  18
PIPESTONE      CLOUDY    28  21  74 N13G28    29.60S WCI  18
REDWOOD FALLS  CLOUDY    31  28  89 NW12      29.58F WCI  22
TRACY          CLOUDY    30  28  90 NW17G23   29.60S WCI  18
WINDOM         CLOUDY    30  28  93 NW14      29.59S WCI  20
WORTHINGTON    CLOUDY    28  24  85 NW14      29.61S WCI  17
$$

IAZ001>003-012>014-020>022-031-032-NEZ013-014-SDZ071-271200-
NORTHWEST IOWA

CITY           SKY/WX    TMP DP  RH WIND       PRES   REMARKS
CHEROKEE       CLOUDY    31  28  88 NW14      29.64R WCI  21
DENISON        CLOUDY    34  28  80 NW10      29.66R WCI  26
ESTHERVILLE    CLOUDY    29  29 100 NW17      29.59R WCI  17
LE MARS        CLOUDY    32  28  86 NW12      29.66R WCI  23
ORANGE CITY    CLOUDY    30  28  93 N12       29.63S WCI  21
SHELDON        CLOUDY    30  27  86 NW15G24   29.61S WCI  19
SIOUX CITY     CLOUDY    33  28  81 NW16      29.66R WCI  23
SPENCER        CLOUDY    30  28  92 NW12      29.61R WCI  20
STORM LAKE     CLOUDY    30  28  93 NW14G21   29.62R WCI  20
$$

ABBREVIATIONS USED IN REMARKS
   TC - TEMPERATURE IN CELSIUS
  WCI - WIND CHILL INDEX
   HX - HEAT INDEX
  VSB - VISIBILITY





USA.gov is the U.S. government's official web portal to all federal, state and local government web resources and services.